[[{"header":{"parameterUnit":"m.s-1","parameterCategory":2,"la1":30.2992,"la2":30.254,"lo1":-89.0895,"lo2":-89.0443,"dy":0.0025,"dx":0.0025,"nx":19,"ny":19,"refTime":"2026-03-27T09:00:00:Z","depth":"0","parameterNumber":2,"parameterNumberName":"U-component_of_CURRENTS"},"data":[0,0,0,-0.2774,-0.2775,-0.2811,-0.2811,-0.2779,-0.2778,0,0,0,0,0,0,0,0,0,0,0,-0.2747,-0.2747,-0.2774,-0.2776,-0.2811,-0.2811,-0.2779,-0.2778,0,0,0,0,0,0,0,0,0,0,0,-0.2747,-0.2747,-0.2747,-0.2776,-0.2811,-0.2811,-0.2779,-0.2768,0,0,0,0,0,0,0,0,0,0,-0.2741,-0.2724,-0.2747,-0.2747,-0.2776,-0.2811,-0.2811,-0.2768,-0.2768,-0.2745,0,-0.2753,0,-0.2777,-0.2776,-0.2776,0,0,0,-0.276,-0.2724,-0.2747,-0.2747,-0.2777,-0.2811,-0.2791,-0.2769,-0.2769,-0.2745,-0.2753,-0.2753,-0.2776,-0.2776,-0.2775,-0.2713,-0.2713,0,0,-0.2758,-0.2737,-0.2747,-0.2748,-0.2787,-0.279,-0.2792,-0.277,-0.276,-0.2753,-0.2753,-0.2775,-0.2775,-0.2775,-0.2714,-0.2713,0,0,0,-0.2763,-0.2736,-0.2761,-0.2748,-0.2768,-0.2791,-0.2794,-0.2761,-0.2774,-0.2752,-0.2775,-0.2775,-0.2775,-0.2714,-0.2714,-0.2689,0,0,0,-0.2761,-0.274,-0.276,-0.2746,-0.2769,-0.2774,-0.2785,-0.2775,-0.2774,-0.2775,-0.2775,-0.2774,-0.2715,-0.2714,-0.2691,-0.2644,0,0,0,-0.2745,-0.2738,-0.2747,-0.2745,-0.2771,-0.2776,-0.2786,-0.2775,-0.2788,-0.2776,-0.2774,-0.2715,-0.2714,-0.2692,-0.2647,-0.2602,0,0,0,-0.2717,-0.2744,-0.2746,-0.2779,-0.2771,-0.2807,-0.2787,-0.2802,-0.2796,-0.2775,-0.2715,-0.2714,-0.2693,-0.2649,-0.2605,-0.2406,-0.2379,0,0,-0.2744,-0.2746,-0.2769,-0.2774,-0.2809,-0.2801,-0.279,-0.2773,-0.2766,-0.2715,-0.2714,-0.269,-0.2648,-0.2603,-0.2352,-0.2326,0,0,0,-0.2774,-0.2779,-0.2797,-0.2809,-0.2834,-0.2788,-0.279,-0.2763,-0.2714,-0.2762,-0.2678,-0.265,-0.2624,-0.2509,-0.2488,-0.2392,-0.2709,-0.2709,-0.2709,-0.2747,-0.2772,-0.2777,-0.2792,-0.2795,-0.2774,-0.2726,-0.2674,-0.2704,-0.2669,-0.2624,-0.2557,-0.2435,-0.2417,-0.2322,-0.2634,-0.2634,-0.2634,-0.2634,-0.2728,-0.2703,-0.2713,-0.2728,-0.2694,-0.2671,-0.2615,-0.2612,-0.2534,-0.2574,-0.2551,-0.2479,-0.2392,-0.2299,-0.2632,-0.2632,-0.2633,-0.2633,-0.2633,-0.2661,-0.2643,-0.2663,-0.2627,-0.2582,-0.2573,-0.2484,-0.2481,-0.2481,-0.2448,-0.2332,-0.233,-0.2253,-0.2459,-0.2458,-0.2458,-0.2458,-0.2457,-0.2457,-0.2555,-0.2571,-0.2517,-0.2512,-0.2468,-0.2428,-0.2405,-0.237,-0.229,-0.225,-0.2249,-0.2187,-0.2502,-0.2514,-0.2451,-0.2452,-0.2453,-0.2453,-0.2454,-0.2397,-0.243,-0.2336,-0.2293,-0.2223,-0.2068,-0.2167,-0.2034,-0.2037,-0.1937,-0.1869,-0.2135,-0.2112,-0.2127,-0.2129,-0.1969,-0.1969,-0.1969,-0.1969,-0.2257,-0.2282,-0.2106,-0.2002,-0.193,-0.1872,-0.1587,-0.1534,-0.1535,-0.1485,-0.162,-0.1615,-0.1639,-0.1592,-0.1619,-0.1612,-0.1325,-0.1324,-0.1324,-0.2077,-0.2073,-0.1879,-0.1843,-0.1761,-0.1609,-0.1183,-0.0897,-0.1034,-0.1299,-0.1526,-0.1554,-0.1558,-0.1603,-0.1546,-0.1591,-0.1587,0,0]},{"header":{"parameterUnit":"m.s-1","parameterCategory":2,"la1":30.2992,"la2":30.254,"lo1":-89.0895,"lo2":-89.0443,"dy":0.0025,"dx":0.0025,"nx":19,"ny":19,"refTime":"2026-03-27T09:00:00:Z","depth":"0","parameterNumber":3,"parameterNumberName":"V-component_of_CURRENTS"},"data":[0,0,0,0.019,0.0192,0.0311,0.0312,0.0489,0.049,0,0,0,0,0,0,0,0,0,0,0,0.0141,0.0141,0.019,0.0192,0.0311,0.0312,0.0489,0.049,0,0,0,0,0,0,0,0,0,0,0,0.0141,0.0141,0.0142,0.0193,0.0311,0.0312,0.0488,0.0396,0,0,0,0,0,0,0,0,0,0,0.0279,0.0212,0.0141,0.0142,0.0193,0.0311,0.0312,0.0392,0.0402,0.0437,0,0.044,0,0.0467,0.0501,0.0502,0,0,0,0.0209,0.0204,0.0246,0.0142,0.0194,0.031,0.0262,0.0397,0.0409,0.0451,0.0442,0.0449,0.047,0.0502,0.0503,0.0551,0.055,0,0,0.0202,0.016,0.0238,0.0253,0.0205,0.0258,0.0265,0.0404,0.0402,0.0443,0.0453,0.0473,0.0503,0.0505,0.0552,0.0551,0,0,0,0.0172,0.0155,0.0194,0.0245,0.0264,0.0261,0.027,0.0396,0.0411,0.0455,0.0475,0.0504,0.0506,0.0552,0.0551,0.0363,0,0,0,0.0169,0.0137,0.019,0.0167,0.026,0.0325,0.0258,0.0402,0.0418,0.0474,0.0504,0.0508,0.0553,0.0552,0.037,0.0271,0,0,0,0.0139,0.0134,0.0144,0.0164,0.0211,0.0323,0.0347,0.0406,0.043,0.0502,0.0508,0.0554,0.0552,0.0376,0.0283,0.0287,0,0,0,0.01,0.0064,0.0142,0.0112,0.0209,0.0247,0.0346,0.0396,0.0447,0.0505,0.0553,0.0551,0.0378,0.029,0.0292,0.0445,0.0432,0,0,0.0026,0.0054,0.0037,0.0109,0.0085,0.0233,0.0206,0.0325,0.0434,0.0515,0.0516,0.0368,0.0284,0.0288,0.0348,0.0338,0,0,0,-0.0005,-0.0035,-0.002,-0.0015,0.0061,0.0084,0.0215,0.0264,0.0331,0.0455,0.0387,0.034,0.0349,0.0454,0.0444,0.0672,0.0544,0.0544,0.0544,-0.0184,-0.0143,-0.0199,-0.0154,-0.012,-0.0015,0.0005,0.0096,0.0234,0.0226,0.02,0.0089,0.0196,0.0192,0.0422,0.0227,0.0227,0.0226,0.0226,-0.0353,-0.0399,-0.0353,-0.0387,-0.0323,-0.0312,-0.0205,-0.0126,-0.007,0.004,0.006,0.0265,0.0172,0.0421,0.0214,0.0216,0.0218,0.0219,0.022,-0.0495,-0.0516,-0.0519,-0.0564,-0.0582,-0.0483,-0.0477,-0.0386,-0.0242,-0.0257,-0.0001,0.0005,0.022,-0.0188,-0.0188,-0.0189,-0.0189,-0.0189,-0.019,-0.0634,-0.0646,-0.0707,-0.0737,-0.0745,-0.0729,-0.0619,-0.0539,-0.0335,-0.0194,-0.019,0.0219,-0.0035,-0.0023,-0.0197,-0.0196,-0.0195,-0.0194,-0.0194,-0.0792,-0.0775,-0.0872,-0.0896,-0.0912,-0.0824,-0.0731,-0.0444,-0.0372,-0.023,0.0193,-0.0118,-0.0022,-0.001,0.0005,-0.0151,-0.0151,-0.0151,-0.0151,-0.0878,-0.0888,-0.0975,-0.1015,-0.1025,-0.087,-0.0531,-0.0188,0.0164,0.0343,0.0333,0.0475,0.0463,0.0596,0.0594,0.0626,0.063,0.0631,0.0632,-0.0954,-0.0972,-0.1026,-0.1052,-0.1048,-0.0827,-0.0327,0.0334,0.0668,0.0681,0.0607,0.0574,0.0798,0.0762,0.0988,0.0968,0.1027,0,0]}],[{"header":{"parameterUnit":"m.s-1","parameterCategory":2,"la1":30.2992,"la2":30.254,"lo1":-89.0895,"lo2":-89.0443,"dy":0.0025,"dx":0.0025,"nx":19,"ny":19,"refTime":"2026-03-27T09:00:00:Z","depth":"2","parameterNumber":2,"parameterNumberName":"U-component_of_CURRENTS"},"data":[0,0,0,-0.2105,-0.2107,-0.2197,-0.2197,-0.2266,-0.2266,0,0,0,0,0,0,0,0,0,0,0,-0.2076,-0.2077,-0.2105,-0.2107,-0.2197,-0.2197,-0.2266,-0.2266,0,0,0,0,0,0,0,0,0,0,0,-0.2076,-0.2076,-0.2077,-0.2107,-0.2196,-0.2197,-0.2266,-0.2212,0,0,0,0,0,0,0,0,0,0,-0.2131,-0.2096,-0.2076,-0.2077,-0.2108,-0.2196,-0.2197,-0.221,-0.2215,-0.2209,0,-0.2221,0,-0.2239,-0.2269,-0.2269,0,0,0,-0.2117,-0.2092,-0.2125,-0.2077,-0.2108,-0.2196,-0.2159,-0.2213,-0.2219,-0.2215,-0.2222,-0.2225,-0.224,-0.2269,-0.2269,-0.2295,-0.2295,0,0,-0.2112,-0.2084,-0.2121,-0.2129,-0.2128,-0.2156,-0.2162,-0.2217,-0.2215,-0.2222,-0.2227,-0.2241,-0.2269,-0.2269,-0.2295,-0.2295,0,0,0,-0.2091,-0.2081,-0.2114,-0.2125,-0.2142,-0.2158,-0.2165,-0.2213,-0.2226,-0.2227,-0.2242,-0.2269,-0.227,-0.2295,-0.2295,-0.2323,0,0,0,-0.2088,-0.2068,-0.2111,-0.2095,-0.2141,-0.2182,-0.2159,-0.2223,-0.223,-0.2241,-0.2269,-0.227,-0.2295,-0.2295,-0.2322,-0.2314,0,0,0,-0.2073,-0.2066,-0.2078,-0.2093,-0.2129,-0.2182,-0.2199,-0.2225,-0.2237,-0.2269,-0.227,-0.2295,-0.2295,-0.2321,-0.2314,-0.23,0,0,0,-0.204,-0.2057,-0.2077,-0.2106,-0.2128,-0.2191,-0.2199,-0.2243,-0.2271,-0.227,-0.2295,-0.2295,-0.2321,-0.2313,-0.23,-0.2107,-0.2092,0,0,-0.2046,-0.2057,-0.2079,-0.2099,-0.2158,-0.2179,-0.2233,-0.2269,-0.2265,-0.2276,-0.2277,-0.2322,-0.2314,-0.23,-0.2106,-0.2091,0,0,0,-0.2071,-0.2085,-0.2108,-0.2146,-0.2193,-0.2235,-0.2271,-0.2281,-0.2303,-0.228,-0.2314,-0.2307,-0.2298,-0.2181,-0.2169,-0.2295,-0.2295,-0.2295,-0.2295,-0.2027,-0.2077,-0.2114,-0.2177,-0.2217,-0.2273,-0.2298,-0.2311,-0.2319,-0.2325,-0.2325,-0.2323,-0.22,-0.2188,-0.2329,-0.2329,-0.2329,-0.2329,-0.2329,-0.2031,-0.2047,-0.2117,-0.2169,-0.2224,-0.2266,-0.2321,-0.2332,-0.2339,-0.2343,-0.2333,-0.2209,-0.2176,-0.2331,-0.2331,-0.2331,-0.233,-0.233,-0.233,-0.1988,-0.1999,-0.205,-0.2121,-0.2183,-0.2254,-0.2282,-0.2327,-0.2339,-0.234,-0.2193,-0.219,-0.2327,-0.2336,-0.2336,-0.2336,-0.2336,-0.2336,-0.2336,-0.1903,-0.1958,-0.1978,-0.207,-0.2104,-0.2172,-0.2256,-0.2259,-0.2216,-0.2184,-0.2182,-0.2325,-0.2324,-0.2326,-0.2335,-0.2335,-0.2335,-0.2335,-0.2335,-0.1817,-0.1846,-0.187,-0.1904,-0.199,-0.1973,-0.211,-0.2044,-0.2059,-0.1981,-0.2084,-0.209,-0.2054,-0.206,-0.2054,-0.1992,-0.1992,-0.1992,-0.1992,-0.1728,-0.1757,-0.1746,-0.1766,-0.1808,-0.1866,-0.1749,-0.1724,-0.175,-0.1724,-0.1737,-0.1696,-0.1714,-0.1658,-0.1674,-0.1661,-0.1497,-0.1496,-0.1495,-0.1646,-0.1667,-0.1611,-0.1656,-0.1698,-0.1693,-0.151,-0.1358,-0.1327,-0.1483,-0.1719,-0.1946,-0.1917,-0.1934,-0.1874,-0.189,-0.1878,0,0]},{"header":{"parameterUnit":"m.s-1","parameterCategory":2,"la1":30.2992,"la2":30.254,"lo1":-89.0895,"lo2":-89.0443,"dy":0.0025,"dx":0.0025,"nx":19,"ny":19,"refTime":"2026-03-27T09:00:00:Z","depth":"2","parameterNumber":3,"parameterNumberName":"V-component_of_CURRENTS"},"data":[0,0,0,-0.0483,-0.0482,-0.0424,-0.0423,-0.0298,-0.0297,0,0,0,0,0,0,0,0,0,0,0,-0.05,-0.05,-0.0483,-0.0482,-0.0424,-0.0423,-0.0298,-0.0297,0,0,0,0,0,0,0,0,0,0,0,-0.05,-0.05,-0.05,-0.0482,-0.0424,-0.0423,-0.0299,-0.0352,0,0,0,0,0,0,0,0,0,0,-0.0413,-0.0445,-0.05,-0.05,-0.0482,-0.0424,-0.0423,-0.0355,-0.0348,-0.0315,0,-0.0315,0,-0.0309,-0.0289,-0.0289,0,0,0,-0.0467,-0.045,-0.0435,-0.05,-0.0481,-0.0424,-0.0446,-0.0351,-0.0344,-0.0307,-0.0313,-0.0309,-0.0307,-0.0288,-0.0288,-0.0188,-0.0188,0,0,-0.047,-0.0484,-0.044,-0.0431,-0.0476,-0.0448,-0.0444,-0.0347,-0.0343,-0.0313,-0.0306,-0.0305,-0.0287,-0.0287,-0.0189,-0.0188,0,0,0,-0.049,-0.0487,-0.0474,-0.0435,-0.0432,-0.0446,-0.0442,-0.0347,-0.0343,-0.0305,-0.0304,-0.0287,-0.0285,-0.0189,-0.0189,-0.026,0,0,0,-0.0491,-0.0499,-0.0476,-0.0483,-0.0435,-0.0397,-0.0444,-0.035,-0.0339,-0.0304,-0.0287,-0.0284,-0.0189,-0.0189,-0.0259,-0.0295,0,0,0,-0.0501,-0.05,-0.0497,-0.0484,-0.0466,-0.0399,-0.0389,-0.0347,-0.0339,-0.0289,-0.0284,-0.0189,-0.0189,-0.0257,-0.0292,-0.0254,0,0,0,-0.0512,-0.0532,-0.0497,-0.0517,-0.0466,-0.0449,-0.0389,-0.0367,-0.0333,-0.0286,-0.0189,-0.0189,-0.0257,-0.029,-0.0253,-0.0186,-0.0184,0,0,-0.0549,-0.0536,-0.055,-0.0518,-0.0527,-0.0456,-0.044,-0.0371,-0.0308,-0.0215,-0.0213,-0.0259,-0.0291,-0.0254,-0.0162,-0.0161,0,0,0,-0.0569,-0.058,-0.0576,-0.057,-0.0539,-0.0492,-0.0425,-0.0375,-0.0294,-0.0287,-0.023,-0.0248,-0.0222,-0.0179,-0.0178,-0.0187,-0.0187,-0.0187,-0.0187,-0.0629,-0.0618,-0.0639,-0.0614,-0.0591,-0.0513,-0.0463,-0.0372,-0.0322,-0.029,-0.0285,-0.0278,-0.0233,-0.0232,-0.0256,-0.0257,-0.0257,-0.0257,-0.0257,-0.07,-0.0718,-0.0685,-0.0704,-0.064,-0.061,-0.0483,-0.0432,-0.0335,-0.0308,-0.0278,-0.0231,-0.0235,-0.0262,-0.0261,-0.0261,-0.026,-0.026,-0.0259,-0.0752,-0.076,-0.0765,-0.0776,-0.0746,-0.0668,-0.0602,-0.0512,-0.0396,-0.0376,-0.027,-0.0268,-0.0315,-0.0348,-0.0348,-0.0348,-0.0348,-0.0348,-0.0348,-0.0809,-0.0811,-0.0851,-0.0849,-0.0852,-0.0808,-0.0676,-0.0589,-0.0428,-0.0331,-0.0329,-0.0307,-0.0304,-0.0317,-0.0348,-0.0348,-0.0348,-0.0348,-0.0348,-0.0882,-0.088,-0.0945,-0.0966,-0.0965,-0.0922,-0.0791,-0.0556,-0.0441,-0.0335,-0.0272,-0.0273,-0.0231,-0.023,-0.0239,-0.0248,-0.0248,-0.0248,-0.0248,-0.0927,-0.0933,-0.1016,-0.106,-0.1067,-0.0976,-0.0811,-0.0555,-0.0318,-0.0198,-0.0201,-0.0185,-0.019,-0.0144,-0.0145,-0.0151,-0.0138,-0.0138,-0.0138,-0.0971,-0.0993,-0.1056,-0.1097,-0.1113,-0.1014,-0.0838,-0.0522,-0.0183,-0.0137,-0.0222,-0.0232,-0.0215,-0.022,-0.0152,-0.0152,-0.0163,0,0]}],[{"header":{"parameterUnit":"m.s-1","parameterCategory":2,"la1":30.2992,"la2":30.254,"lo1":-89.0895,"lo2":-89.0443,"dy":0.0025,"dx":0.0025,"nx":19,"ny":19,"refTime":"2026-03-27T09:00:00:Z","depth":"4","parameterNumber":2,"parameterNumberName":"U-component_of_CURRENTS"},"data":[0,0,0,-0.1536,-0.1539,-0.1686,-0.1686,-0.1778,-0.1778,0,0,0,0,0,0,0,0,0,0,0,-0.1492,-0.1494,-0.1536,-0.1539,-0.1686,-0.1686,-0.1778,-0.1778,0,0,0,0,0,0,0,0,0,0,0,-0.1492,-0.1493,-0.1495,-0.154,-0.1686,-0.1686,-0.1778,-0.1692,0,0,0,0,0,0,0,0,0,0,-0.1563,-0.1533,-0.1493,-0.1495,-0.1541,-0.1685,-0.1687,-0.1689,-0.1698,-0.1682,0,-0.1713,0,-0.1741,-0.1782,-0.1782,0,0,0,-0.1545,-0.1527,-0.1565,-0.1495,-0.1542,-0.1685,-0.1621,-0.1695,-0.1704,-0.1693,-0.1715,-0.1719,-0.1742,-0.1782,-0.1782,-0.1877,-0.1878,0,0,-0.1537,-0.1518,-0.1559,-0.1571,-0.1589,-0.1617,-0.1626,-0.1701,-0.1713,-0.1715,-0.1722,-0.1744,-0.1782,-0.1783,-0.1876,-0.1877,0,0,0,-0.151,-0.1512,-0.155,-0.1566,-0.1597,-0.1621,-0.1631,-0.171,-0.1723,-0.1723,-0.1745,-0.1783,-0.1783,-0.1876,-0.1877,-0.1914,0,0,0,-0.1505,-0.1496,-0.1547,-0.1536,-0.1596,-0.1668,-0.1638,-0.1718,-0.1728,-0.1744,-0.1783,-0.1784,-0.1875,-0.1876,-0.1912,-0.1905,0,0,0,-0.1484,-0.1493,-0.1513,-0.1535,-0.1595,-0.1668,-0.1687,-0.1722,-0.174,-0.1782,-0.1784,-0.1874,-0.1876,-0.1909,-0.1902,-0.1907,0,0,0,-0.1454,-0.1485,-0.1513,-0.1561,-0.1594,-0.1682,-0.1687,-0.1757,-0.1798,-0.1783,-0.1875,-0.1877,-0.1908,-0.19,-0.1906,-0.1644,0,0,0,-0.147,-0.1487,-0.1515,-0.1544,-0.1622,-0.1662,-0.175,-0.1803,-0.1813,-0.1842,-0.1846,-0.1912,-0.1902,-0.1907,-0.174,0,0,0,0,-0.1506,-0.1527,-0.1557,-0.1615,-0.1679,-0.1751,-0.181,-0.184,-0.1902,-0.1844,-0.1934,-0.1926,-0.1928,-0.1772,-0.1884,-0.1884,-0.1884,-0.1884,-0.1884,-0.148,-0.1532,-0.1587,-0.1661,-0.1724,-0.182,-0.1874,-0.1924,-0.1935,-0.1976,-0.1973,-0.2023,-0.1864,-0.2005,-0.2005,-0.2005,-0.2005,-0.2005,-0.2006,-0.149,-0.1514,-0.1605,-0.1679,-0.1767,-0.1848,-0.1944,-0.1974,-0.203,-0.2033,-0.2034,-0.1844,-0.201,-0.2009,-0.2008,-0.2008,-0.2007,-0.2007,-0.2007,-0.1447,-0.1465,-0.154,-0.1651,-0.1761,-0.1869,-0.193,-0.201,-0.2049,-0.2065,-0.1891,-0.204,-0.2015,-0.2074,-0.2074,-0.2074,-0.2074,-0.2074,-0.2074,-0.1358,-0.1433,-0.1489,-0.162,-0.1691,-0.1797,-0.1929,-0.1944,-0.2008,-0.189,-0.2075,-0.2046,-0.2043,-0.2019,-0.2075,-0.2075,-0.2075,-0.2075,-0.2075,-0.1278,-0.1325,-0.1389,-0.146,-0.1603,-0.1659,-0.1827,-0.179,-0.1785,-0.1712,-0.1789,-0.1803,-0.1755,-0.176,-0.1723,-0.1693,-0.169,-0.1687,0,-0.1199,-0.1234,-0.129,-0.1352,-0.141,-0.1557,-0.1495,-0.1542,-0.1574,-0.1521,-0.1784,-0.1874,-0.1881,-0.1831,-0.183,-0.1788,0,0,0,-0.1136,-0.1168,-0.1164,-0.1248,-0.1301,-0.134,-0.1464,-0.1398,-0.1594,-0.1486,-0.1606,-0.1627,-0.1906,-0.2076,-0.2035,-0.2033,-0.1991,0,0]},{"header":{"parameterUnit":"m.s-1","parameterCategory":2,"la1":30.2992,"la2":30.254,"lo1":-89.0895,"lo2":-89.0443,"dy":0.0025,"dx":0.0025,"nx":19,"ny":19,"refTime":"2026-03-27T09:00:00:Z","depth":"4","parameterNumber":3,"parameterNumberName":"V-component_of_CURRENTS"},"data":[0,0,0,-0.039,-0.0391,-0.0377,-0.0377,-0.0318,-0.0317,0,0,0,0,0,0,0,0,0,0,0,-0.0393,-0.0393,-0.039,-0.0391,-0.0377,-0.0377,-0.0318,-0.0317,0,0,0,0,0,0,0,0,0,0,0,-0.0393,-0.0393,-0.0393,-0.0391,-0.0377,-0.0376,-0.0318,-0.0336,0,0,0,0,0,0,0,0,0,0,-0.0353,-0.0369,-0.0393,-0.0393,-0.0391,-0.0377,-0.0376,-0.0337,-0.0335,-0.0316,0,-0.0321,0,-0.0322,-0.0313,-0.0313,0,0,0,-0.038,-0.0371,-0.0367,-0.0393,-0.0391,-0.0377,-0.038,-0.0336,-0.0333,-0.0312,-0.032,-0.0318,-0.0322,-0.0313,-0.0313,-0.0233,-0.0232,0,0,-0.038,-0.0388,-0.0369,-0.0365,-0.0396,-0.038,-0.038,-0.0335,-0.0335,-0.032,-0.0317,-0.0321,-0.0313,-0.0312,-0.0233,-0.0233,0,0,0,-0.039,-0.0389,-0.0386,-0.0367,-0.0371,-0.038,-0.0379,-0.0337,-0.0336,-0.0316,-0.032,-0.0312,-0.0311,-0.0234,-0.0233,-0.0282,0,0,0,-0.039,-0.0395,-0.0386,-0.039,-0.0372,-0.0361,-0.0383,-0.0339,-0.0334,-0.032,-0.0312,-0.0311,-0.0234,-0.0233,-0.0282,-0.0314,0,0,0,-0.0392,-0.0395,-0.0396,-0.0391,-0.039,-0.0362,-0.0358,-0.0338,-0.0337,-0.0313,-0.0311,-0.0235,-0.0234,-0.0282,-0.0313,-0.0276,0,0,0,-0.0396,-0.0414,-0.0397,-0.0418,-0.039,-0.039,-0.0358,-0.0357,-0.0342,-0.0312,-0.0234,-0.0233,-0.0282,-0.0312,-0.0276,-0.0287,0,0,0,-0.0424,-0.0418,-0.0431,-0.0415,-0.0432,-0.039,-0.0385,-0.0356,-0.0312,-0.0245,-0.0244,-0.0282,-0.0313,-0.0276,-0.0223,0,0,0,0,-0.0443,-0.0453,-0.0455,-0.0461,-0.0447,-0.0419,-0.0388,-0.0349,-0.0289,-0.0299,-0.0247,-0.0264,-0.0239,-0.0243,-0.0228,-0.0228,-0.0228,-0.0228,-0.0228,-0.0482,-0.048,-0.0502,-0.0493,-0.0484,-0.0438,-0.0401,-0.0332,-0.0305,-0.027,-0.0278,-0.0249,-0.0254,-0.024,-0.024,-0.024,-0.0241,-0.0241,-0.0241,-0.053,-0.0546,-0.0535,-0.056,-0.0521,-0.0507,-0.0407,-0.0369,-0.0288,-0.0272,-0.0245,-0.0263,-0.0245,-0.0244,-0.0243,-0.0243,-0.0243,-0.0242,-0.0242,-0.056,-0.0567,-0.0586,-0.0612,-0.0602,-0.0553,-0.0501,-0.0428,-0.0331,-0.0311,-0.0273,-0.0261,-0.0286,-0.0289,-0.0289,-0.0289,-0.0289,-0.0289,-0.0289,-0.0584,-0.0599,-0.0646,-0.0664,-0.0683,-0.066,-0.0561,-0.0488,-0.039,-0.0323,-0.0322,-0.0265,-0.0263,-0.0285,-0.0289,-0.0289,-0.0289,-0.0289,-0.0289,-0.0621,-0.0634,-0.0703,-0.0738,-0.0768,-0.0738,-0.0655,-0.0485,-0.0405,-0.0317,-0.0298,-0.0298,-0.0273,-0.0271,-0.0293,-0.0299,-0.0299,-0.0299,0,-0.0643,-0.0655,-0.0749,-0.0806,-0.0823,-0.0777,-0.0658,-0.0548,-0.0408,-0.0413,-0.0415,-0.0403,-0.0399,-0.0381,-0.0379,-0.041,0,0,0,-0.0667,-0.0695,-0.0761,-0.0822,-0.0847,-0.071,-0.062,-0.0556,-0.0439,-0.0334,-0.0302,-0.0302,-0.0329,-0.0288,-0.0247,-0.0245,-0.0278,0,0]}]]